Flag for Micronesia Weather past 2 weeks in Weno, Truk, Micronesia

Now
87 °F

Broken clouds.


Feels Like: 100 °F
Forecast: 77 / 83 °F
Wind: 7 mph from Northeast

Location: Truk Intl / Moen Island

Current Time: Jun 3, 2015 at 11:55:58 AM

Latest Report: Jun 3, 2015 at 10:50 AM


Visibility: 15 mi

Pressure: 29.83 "Hg

Humidity: 77%

Dew point: 78 °F

Location of WenoLocation

Historic Weather in Weno — Graph

°F

Weno temperature yesterday

Maximum temperature yesterday: 86 °F (at 4:52 PM)
Minimum temperature yesterday: 77 °F (at 5:55 AM)
Average temperature yesterday: 81 °F

Past Weeks' High & Low Weather Summary

 TemperatureHumidityPressure
High91 °F (May 28, 1:50 PM)97% (May 22, 2:54 AM)29.92 "Hg (May 22, 2:54 AM)
Low76 °F (May 29, 2:51 AM)66% (May 28, 1:50 PM)29.75 "Hg (May 31, 2:50 PM)
Average82 °F84%29.84 "Hg
* Reported May 19 10:50 AM — Jun 3 10:50 AM, Weno, Weather by CustomWeather, © 2015

Note: Actual official high and low records may vary slightly from our data, if they occured in-between our weather recording intervals... More about our weather records

Advertising

Weno weather history for previous 24 hours

 ConditionsComfort  
Time TempWeatherWind HumidityBarometerVisibility
10:50 AM
Wed, Jun 3
87 °FBroken clouds.7 mph77%29.83 "Hg15 mi
9:51 AM85 °FMore clouds than sun.5 mph77%29.83 "Hg15 mi
8:50 AM85 °FMore clouds than sun.5 mph79%29.83 "Hg15 mi
7:51 AM84 °FMostly cloudy.5 mph84%29.84 "Hg15 mi
5:53 AM78 °FMostly cloudy.5 mph91%29.83 "Hg15 mi
4:54 AM81 °FOvercast.5 mph81%29.82 "Hg15 mi
3:54 AM80 °FSprinkles. Mostly cloudy.6 mph88%29.80 "Hg15 mi
2:52 AM79 °FOvercast.6 mph84%29.81 "Hg15 mi
1:52 AM79 °FSprinkles. Mostly cloudy.10 mph87%29.83 "Hg13 mi
12:51 AM79 °FMostly cloudy.5 mph90%29.84 "Hg15 mi
11:51 PM
Tue, Jun 2
80 °FMostly cloudy.3 mph88%29.84 "Hg15 mi
10:51 PM82 °FMostly cloudy.5 mph81%29.87 "Hg15 mi
9:51 PM82 °FMostly cloudy.5 mph83%29.87 "Hg15 mi
8:51 PM82 °FMostly cloudy.5 mph81%29.86 "Hg15 mi
7:51 PM82 °FMostly cloudy.5 mph84%29.84 "Hg15 mi
6:54 PM82 °FMostly cloudy.5 mph85%29.83 "Hg15 mi
5:53 PM83 °FMostly cloudy.6 mph82%29.81 "Hg15 mi
4:52 PM86 °FMostly cloudy.6 mph77%29.79 "Hg15 mi
3:52 PM83 °FMostly cloudy.No wind82%29.79 "Hg15 mi
2:53 PM84 °FMostly cloudy.6 mph80%29.79 "Hg15 mi
12:53 PM85 °FMostly cloudy.3 mph78%29.79 "Hg15 mi
11:50 AM85 °FMostly cloudy.7 mph78%29.78 "Hg15 mi
Weather by CustomWeather, © 2015

See weather overviewHow to use our weather pages